This is the latest recevied weather packets stored in our database for station/object IW5CI-13. If no packets are shown the sender has not sent any weather packets the latest 10 day(s).
| Time | Temp. | Humidity | Pressure | Rain* | Wind** | Luminosity | Snow |
|---|---|---|---|---|---|---|---|
| 1777606718 | 11.11° C | 22% | 1024.8 hPa | - | - | - | - |
| 1777605514 | 11.11° C | 22% | 1024.6 hPa | - | - | - | - |
| 1777604311 | 11.11° C | 22% | 1024.6 hPa | - | - | - | - |
| 1777603107 | 11.11° C | 22% | 1024.5 hPa | - | - | - | - |
| 1777601904 | 10.56° C | 22% | 1024.4 hPa | - | - | - | - |
| 1777600701 | 11.11° C | 21% | 1024.4 hPa | - | - | - | - |
| 1777598294 | 10.56° C | 21% | 1024.1 hPa | - | - | - | - |
| 1777597090 | 10.56° C | 22% | 1024.2 hPa | - | - | - | - |
| 1777595887 | 10.56° C | 22% | 1024.4 hPa | - | - | - | - |
| 1777594684 | 10.56° C | 22% | 1024.5 hPa | - | - | - | - |
| 1777592276 | 11.11° C | 21% | 1024.2 hPa | - | - | - | - |
| 1777588666 | 12.22° C | 20% | 1024 hPa | - | - | - | - |
| 1777587462 | 11.67° C | 19% | 1023.8 hPa | - | - | - | - |
| 1777586259 | 12.22° C | 18% | 1023.6 hPa | - | - | - | - |
| 1777585054 | 12.22° C | 18% | 1023.5 hPa | - | - | - | - |
| 1777582647 | 12.22° C | 17% | 1023.3 hPa | - | - | - | - |
| 1777580239 | 11.67° C | 18% | 1023.3 hPa | - | - | - | - |
| 1777579035 | 12.78° C | 18% | 1023.2 hPa | - | - | - | - |
| 1777577831 | 12.78° C | 18% | 1023.3 hPa | - | - | - | - |
| 1777576627 | 12.78° C | 18% | 1023.1 hPa | - | - | - | - |
| 1777575423 | 12.78° C | 19% | 1022.8 hPa | - | - | - | - |
| 1777574220 | 12.78° C | 18% | 1022.4 hPa | - | - | - | - |
| 1777573017 | 13.33° C | 18% | 1021.9 hPa | - | - | - | - |
| 1777571813 | 15° C | 17% | 1021.6 hPa | - | - | - | - |
| 1777570610 | 16.11° C | 16% | 1021.4 hPa | - | - | - | - |
* Rain since midnight (hover to see other rain measurements)
** Current wind speed in m/s (hover to see current wind gust speed)